Location: Cercedilla
(40.7379°N, 4.0638°W)
Time: 04:51:58
(UTC+00:00)

Okean 3 Rocket - Pass Details

Date: 07 June 2020
Orbit: 614 x 646 km, 82.5° (Epoch: 14 July)

Event Time Altitude Azimuth Distance (km) Brightness Sun altitude
Exits shadow 03:22:07 15° 193° (SSW) 1,711 5.3 -13.1°
Maximum altitude 03:25:49 76° 278° (W) 669 3.6 -12.6°
Drops below altitude 10° 03:30:23 10° 5° (N) 2,052 7.0 -12.0°
Sets 03:32:39 0° 7° (N) 2,965 7.9 -11.7°
